Regional Weather Roundup
Issued by NWS San Angelo, TX

Home | Current Version | Previous Version | Text Only | Print | Product List | Glossary On
Versions: 1 2 3 4 5 6 7 8 9 10 11 12 13 14 15 16 17 18 19 20 21 22 23 24 25 26 27 28 29 30 31 32 33 34 35 36 37 38 39 40 41 42 43 44 45 46 47 48 49 50
000
ASUS44 KSJT 250410
RWRSJT
WEST CENTRAL TEXAS REGIONAL WEATHER ROUNDUP
NATIONAL WEATHER SERVICE SAN ANGELO TX
1000 PM CST FRI NOV 24 2017

NOTE: "FAIR" INDICATES FEW OR NO CLOUDS BELOW 12,000 FEET WITH NO
SIGNIFICANT WEATHER AND/OR OBSTRUCTIONS TO VISIBILITY.

TXZ049-054-064>066-071>073-076>078-098-099-113-114-127-128-139-140-
154-155-168>170-250500
...LOCATIONS ACROSS WEST CENTRAL TEXAS...

CITY           SKY/WX    TMP DP  RH WIND       PRES   REMARKS
SAN ANGELO     CLEAR     63  33  32 SW14      29.82S
ABILENE        CLEAR     65  36  34 SW17G24   29.76F
DYESS AFB      CLEAR     66  39  37 SW20      29.75F
JUNCTION       CLEAR     58  37  45 CALM      29.87S
SWEETWATER     CLEAR     62  33  32 S16       29.81S
BROWNWOOD      PTCLDY    55  36  47 SE6       29.83S
COLEMAN        CLEAR     58  36  42 S9        29.82R
SONORA         CLEAR     54  34  47 CALM      29.91S
OZONA          FAIR      54  34  47 CALM      29.90S
BRADY          NOT AVBL
$$

TEXAS PANHANDLE/OKLAHOMA PANHANDLE

CITY           SKY/WX    TMP DP  RH WIND       PRES   REMARKS
AMARILLO       CLEAR     52  31  44 N14       29.87R
BORGER         CLOUDY    57  32  38 NE10      29.88R
CANADIAN       CLEAR     62  38  40 NE10G17   29.85R
DALHART        CLEAR     57  33  40 NE21G29   29.96R
DUMAS          CLEAR     50  32  49 N9        29.93R
GUYMON         NOT AVBL
HEREFORD       CLOUDY    47  29  49 MISG      29.86R
PAMPA          CLEAR     57  34  41 NE16      29.87R
PERRYTON       CLEAR     61  36  39 N15G22    29.92R
$$

SOUTHERN PANHANDLE/SOUTH PLAINS/ROLLING PLAINS

CITY           SKY/WX    TMP DP  RH WIND       PRES   REMARKS
LUBBOCK        CLOUDY    52  26  36 W9        29.81R
SNYDER         CLEAR     57  32  39 SW8       29.80S
CHILDRESS      CLEAR     56  33  42 N9        29.74R
SEMINOLE       CLOUDY    59  29  31 W12       29.86R
$$

PERMIAN BASIN

CITY           SKY/WX    TMP DP  RH WIND       PRES   REMARKS
MIDLAND        CLOUDY    60  30  32 SW9       29.84R
ODESSA         CLOUDY    61  28  28 W5        29.85R
WINK           CLOUDY    54  28  36 W7        29.84R
$$

FAR WEST/SOUTHWEST MOUNTAINS/TRANS PECOS

CITY           SKY/WX    TMP DP  RH WIND       PRES   REMARKS
ALPINE         CLEAR     62  24  23 SW12      30.05S
DRYDEN           N/A     55  37  50 NW7       29.88R
EL PASO        CLEAR     60  28  29 E5        29.99R
FORT STOCKTON  CLEAR     63  27  25 SW14      29.90R
GUADALUPE PASS CLOUDY    60  25  26 SW18      30.06R
MARFA          CLOUDY    46  22  38 S5        30.06R
PECOS          CLEAR     63  26  25 SW9       29.86S
$$

DALLAS/FORT WORTH METROPLEX

CITY           SKY/WX    TMP DP  RH WIND       PRES   REMARKS
DFW AIRPORT    CLEAR     63  38  39 S8        29.79F
FTW MEACHAM    CLEAR     64  39  39 S13       29.79S
DAL-EXECUTIVE  CLEAR     62  38  40 S9        29.82R
GRAND PRAIRIE  CLEAR     63  36  36 S8        29.83S
ADDISON        CLEAR     62  37  38 S14G20    29.84S
MESQUITE       CLEAR     57  38  48 S8        29.84S
LANCASTER      CLEAR     58  38  47 S7        29.84S
$$

NORTH CENTRAL TEXAS

CITY           SKY/WX    TMP DP  RH WIND       PRES   REMARKS
SHRMAN/DENISON CLEAR     60  38  43 SE10      29.83R
GAINESVILLE    CLEAR     56  39  53 SE5       29.82R
BRIDGEPORT     CLEAR     63  37  38 S7        29.79S
DENTON         CLEAR     61  39  44 S10       29.80S
WAXAHACHIE     CLEAR     55  39  54 S5        29.85S
GRANBURY       CLEAR     60  41  50 E8        29.81R
$$

WESTERN NORTH TEXAS

CITY           SKY/WX    TMP DP  RH WIND       PRES   REMARKS
WICHITA FALLS  CLEAR     57  35  43 SE6       29.74R
VERNON         CLEAR     58  32  38 NE7       29.74R
BRECKENRIDGE   CLEAR     65  34  31 S13       29.75S
COMANCHE       CLEAR     64  38  38 S16G23    29.81S
$$

CENTRAL AND SOUTH CENTRAL TEXAS

CITY           SKY/WX    TMP DP  RH WIND       PRES   REMARKS
AUSTIN/BERGSTM PTCLDY    53  41  63 S9        29.88R
WACO           CLEAR     61  41  47 S13       29.84S
HILLSBORO      CLEAR     62  38  41 S12G20    29.83S
TEMPLE         CLEAR     57  38  48 S13       29.86S
KILLEEN-GRAY   CLEAR     56  38  50 S9        29.83F
FORT HOOD      CLEAR     56  38  50 S6        29.81F
GEORGETOWN     CLEAR     57  38  48 S6        29.88R
LAGO VISTA     FAIR      63  38  39 S9        29.88R
SAN MARCOS     CLEAR     53  39  59 SW6       29.90R
NEW BRAUNFELS  CLEAR     56  41  57 S8        29.87S
RANDOLPH AFB   CLEAR     58  39  49 S7        29.89S
SAN ANTONIO    PTCLDY    63  39  41 S10       29.90R
STINSON        CLEAR     58  40  51 S6        29.88R
PLEASANTON     NOT AVBL
LA GRANGE      PTCLDY    57  46  67 S3        29.88S
GIDDINGS       CLOUDY    59  44  58 S6        29.91R
$$

EAST TEXAS

CITY           SKY/WX    TMP DP  RH WIND       PRES   REMARKS
PARIS          NOT AVBL
CLARKSVILLE    NOT AVBL
TYLER          CLEAR     55  40  56 S9        29.87S
LONGVIEW       PTCLDY    51  43  74 SE5       29.89R
PALESTINE      CLEAR     57  40  52 SE6       29.89F
NACOGDOCHES    CLEAR     53  43  68 SE5       29.93R
$$

TEXAS HILL COUNTRY AND EDWARDS PLATEAU

CITY           SKY/WX    TMP DP  RH WIND       PRES   REMARKS
LLANO          CLEAR     46  37  71 CALM      29.89S
HORSESHOE BAY  FAIR      60  38  44 S5        29.86S
KERRVILLE      CLEAR     55  40  57 CALM      29.90S
FREDERICKSBRG  CLEAR     56  35  45 SW5       29.88F
ROCKSPRINGS    NOT AVBL
HONDO          CLEAR     50  32  50 CALM      29.90R
UVALDE         CLEAR     49  40  71 CALM      29.91R
DEL RIO        CLEAR     59  42  53 E7        29.86R
$$

SOUTHEAST TEXAS

CITY           SKY/WX    TMP DP  RH WIND       PRES   REMARKS
COLLEGE STN    CLEAR     59  44  57 S9        29.90R
CALDWELL       CLEAR     57  43  59 S8        29.90R
CROCKETT         N/A     54  45  71 S6        29.94R
BRENHAM        CLEAR     59  46  62 S5        29.91S
HUNTSVILLE     CLEAR     57  45  64 S6        29.91R
CONROE         CLEAR     49  47  93 CALM      29.93R
HOUSTON BUSH   PTCLDY    54  47  77 S5        29.93S
HOUSTON HOBBY  CLOUDY    55  48  77 S6        29.93S
PERLAND        PTCLDY    55  48  77 CALM      29.95S
WHARTON        CLEAR     53  46  79 SE5       29.93F
$$

THE UPPER TEXAS COAST

CITY           SKY/WX    TMP DP  RH WIND       PRES   REMARKS
ORANGE         CLEAR     46  46  99 CALM      29.97S
PORT ARTHUR    CLEAR     49  46  90 S5        29.95S
GALVESTON      CLOUDY    64  50  60 S7        29.94F
ANGLETON       CLOUDY    52  47  83 CALM      29.94S
BAY CITY       CLOUDY    55  50  84 SE3       29.93S
$$

TEXAS COASTAL BEND, RIO GRANDE PLAINS DEEP SOUTH TEXAS

CITY           SKY/WX    TMP DP  RH WIND       PRES   REMARKS
VICTORIA       CLOUDY    52  48  86 S7        29.91F
BEEVILLE       FAIR      56  52  88 CALM      29.91R
ROCKPORT       CLOUDY    67  58  72 S7        29.91S
PORT ARANSAS   NOT AVBL
PORT LAVACA    CLOUDY    58  54  85 S6        29.92S
CORPUS CHRISTI CLOUDY    60  52  74 S9        29.90F
KINGSVILLE NAS PTCLDY    59  56  89 S8        29.91S
COTULLA        CLOUDY    58  40  51 SE7       29.88S
LAREDO         PTCLDY    65  43  44 SE12      29.89S
BROWNSVILLE    CLEAR     59  55  87 S7        29.93F
PORT ISABEL    CLEAR     62  58  86 S9        29.92F
HEBBRONVILLE   CLOUDY    56  44  63 S3        29.91S
MCALLEN        CLEAR     60  52  74 S7        29.92F
WESLACO        CLEAR     62  54  75 S6        29.91F
FALFURRIAS     CLOUDY    59  52  77 S5        29.91S
EDINBURG       PTCLDY    62  54  74 S5        29.92S
$$




USA.gov is the U.S. government's official web portal to all federal, state and local government web resources and services.